Date String (YYYY-MM-DD hh:mm:ss) UTC,Instrument flags,Ambient pressure (hPa),Sample flow (lpm),Bypass flow (lpm),Sample temperature (°C),Ambient temperature (°C),ASC tube jacket temperature (°C),LED temperature (°C),Box temperature (°C),Sample RH (%),Span deviation,Mass concentration (μg/m³),Mass concentration (μg/m³),Mass concentration (μg/m³)
DateTimeUTC,F1_M11,P_M11,Q1_M11,Q2_M11,T1_M11,T2_M11,T3_M11,T4_M11,T5_M11,U1_M11,ZSPAN_M11,X0_M11,X2_M11,X1_M11
2022-07-27 10:00:00,,0828.0,5.00,0.00,31.4,28.4,00.0,39.7,32.1,34.6,0000.0,0013.39,0007.26,0006.48
2022-07-27 10:01:00,,0827.9,5.01,0.00,31.4,28.5,00.0,39.7,32.1,34.6,0000.0,0013.95,0007.40,0006.57
2022-07-27 10:02:00,,0827.9,4.99,0.00,31.4,28.5,00.0,39.7,32.2,34.7,0000.0,0014.14,0007.53,0006.68
2022-07-27 10:03:00,,0828.0,4.99,0.00,31.3,28.6,00.0,39.7,32.2,34.7,0000.0,0014.28,0007.68,0006.78
2022-07-27 10:04:00,,0827.9,5.00,0.00,31.3,28.7,00.0,39.7,32.2,34.7,0000.0,0014.15,0007.78,0006.84
2022-07-27 10:05:00,,0828.0,5.00,0.00,31.3,28.7,00.0,39.7,32.2,34.8,0000.0,0014.10,0007.89,0006.94
2022-07-27 10:06:00,,0827.9,5.00,0.00,31.2,28.8,00.0,39.7,32.2,34.8,0000.0,0014.29,0008.03,0007.02
2022-07-27 10:07:00,,0828.0,5.01,0.00,31.2,28.8,00.0,39.7,32.2,34.7,0000.0,0014.31,0008.08,0007.09
2022-07-27 10:08:00,,0827.9,4.99,0.00,31.2,28.9,00.0,39.7,32.3,34.7,0000.0,0014.70,0008.17,0007.14
2022-07-27 10:09:00,,0827.9,5.00,0.00,31.2,28.9,00.0,39.7,32.3,34.8,0000.0,0015.18,0008.23,0007.21
2022-07-27 10:10:00,,0827.9,5.00,0.00,31.2,28.9,00.0,39.7,32.3,35.1,0000.2,0015.07,0008.21,0007.25
2022-07-27 10:11:00,,0827.8,5.00,0.00,31.3,29.0,00.0,39.7,32.4,34.6,0000.0,0015.08,0008.24,0007.27
2022-07-27 10:12:00,,0827.8,5.01,0.00,31.4,29.0,00.0,39.7,32.5,34.3,0000.0,0014.73,0008.30,0007.28
2022-07-27 10:13:00,,0827.9,4.99,0.00,31.5,29.0,00.0,39.7,32.5,34.2,0000.0,0014.76,0008.33,0007.32
2022-07-27 10:14:00,,0827.8,5.01,0.00,31.5,29.1,00.0,39.7,32.5,34.1,0000.0,0014.86,0008.34,0007.33
2022-07-27 10:15:00,,0828.1,4.99,0.00,31.5,29.1,00.0,39.8,32.5,34.1,0000.0,0015.07,0008.39,0007.34
2022-07-27 10:16:00,,0827.8,5.00,0.00,31.5,29.1,00.0,39.8,32.5,34.0,0000.0,0015.12,0008.43,0007.36
2022-07-27 10:17:00,,0828.0,5.01,0.00,31.5,29.2,00.0,39.8,32.5,33.9,0000.0,0014.94,0008.41,0007.40
2022-07-27 10:18:00,,0827.8,5.00,0.00,31.5,29.2,00.0,39.8,32.5,33.9,0000.0,0014.51,0008.43,0007.43
2022-07-27 10:19:00,,0827.8,4.99,0.00,31.5,29.2,00.0,39.9,32.5,33.8,0000.0,0014.26,0008.51,0007.49
2022-07-27 10:20:00,,0827.8,5.00,0.00,31.5,29.2,00.0,39.9,32.5,33.7,0000.0,0013.79,0008.53,0007.53
2022-07-27 10:21:00,,0827.8,5.01,0.00,31.4,29.2,00.0,39.9,32.5,33.7,0000.0,0013.66,0008.57,0007.59
2022-07-27 10:22:00,,0827.9,5.00,0.00,31.4,28.4,00.0,39.8,32.4,33.7,0000.0,0013.09,0008.59,0007.64
2022-07-27 10:23:00,,0827.9,4.99,0.00,31.3,27.9,00.0,39.7,32.3,33.9,0000.0,0012.79,0008.58,0007.71
2022-07-27 10:24:00,,0827.9,5.00,0.00,31.2,27.7,00.0,39.7,32.1,34.1,0000.0,0012.80,0008.64,0007.77
2022-07-27 10:25:00,,0827.9,5.01,0.00,31.1,27.7,00.0,39.7,32.0,34.3,0000.0,0012.79,0008.69,0007.82
2022-07-27 10:26:00,,0827.9,5.00,0.00,31.0,27.8,00.0,39.6,32.0,34.5,0000.0,0012.88,0008.70,0007.86
2022-07-27 10:27:00,,0827.9,5.00,0.00,30.9,27.9,00.0,39.6,32.0,34.5,0000.0,0013.06,0008.74,0007.90
2022-07-27 10:28:00,,0827.9,5.01,0.00,30.9,28.1,00.0,39.6,32.0,34.6,0000.0,0013.37,0008.75,0007.90
2022-07-27 10:29:00,,0827.9,5.00,0.00,30.8,28.2,00.0,39.6,32.0,34.6,0000.0,0013.38,0008.71,0007.90
2022-07-27 10:30:00,,0827.9,4.99,0.00,30.8,28.3,00.0,39.5,32.0,34.6,0000.0,0013.50,0008.66,0007.88
2022-07-27 10:31:00,,0827.9,5.01,0.00,30.8,28.4,00.0,39.5,32.1,34.6,0000.0,0013.19,0008.64,0007.86
2022-07-27 10:32:00,,0827.9,5.00,0.00,30.8,28.5,00.0,39.5,32.1,34.6,0000.0,0013.42,0008.67,0007.86
2022-07-27 10:33:00,,0827.9,4.99,0.00,30.8,28.6,00.0,39.5,32.1,34.6,0000.0,0013.45,0008.67,0007.85
2022-07-27 10:34:00,,0828.0,5.00,0.00,30.7,28.7,00.0,39.5,32.1,34.8,0000.0,0013.50,0008.66,0007.84
2022-07-27 10:35:00,,0828.0,5.01,0.00,30.7,28.8,00.0,39.4,32.1,34.8,0000.0,0013.44,0008.63,0007.83
2022-07-27 10:36:00,,0828.0,5.00,0.00,30.7,28.8,00.0,39.4,32.2,34.7,0000.0,0013.37,0008.58,0007.82
2022-07-27 10:37:00,,0827.9,5.00,0.00,30.7,28.9,00.0,39.4,32.2,34.8,0000.0,0013.15,0008.57,0007.82
2022-07-27 10:38:00,,0827.9,5.00,0.00,30.7,28.9,00.0,39.4,32.2,34.8,0000.0,0012.99,0008.56,0007.82
2022-07-27 10:39:00,,0827.9,5.00,0.00,30.7,29.0,00.0,39.4,32.2,34.9,0000.0,0012.98,0008.60,0007.84
2022-07-27 10:40:00,,0827.9,4.99,0.00,30.7,29.0,00.0,39.4,32.2,34.9,0000.0,0012.82,0008.61,0007.84
2022-07-27 10:41:00,,0827.8,5.00,0.00,30.7,29.1,00.0,39.4,32.3,34.9,0000.0,0012.54,0008.59,0007.85
2022-07-27 10:42:00,,0827.8,4.99,0.00,30.7,29.1,00.0,39.4,32.3,34.9,0000.0,0012.49,0008.60,0007.86
2022-07-27 10:43:00,,0827.9,5.00,0.00,30.7,29.1,00.0,39.4,32.3,34.9,0000.0,0012.31,0008.58,0007.87
2022-07-27 10:44:00,,0827.8,5.00,0.00,30.7,29.2,00.0,39.4,32.3,34.7,0000.0,0012.25,0008.59,0007.89
2022-07-27 10:45:00,,0827.9,5.00,0.00,30.7,29.2,00.0,39.4,32.3,34.4,0000.0,0012.26,0008.63,0007.91
2022-07-27 10:46:00,,0827.9,5.00,0.00,30.7,29.2,00.0,39.4,32.3,34.3,0000.0,0012.35,0008.67,0007.93
2022-07-27 10:47:00,,0827.8,5.00,0.00,30.7,29.3,00.0,39.4,32.4,34.1,0000.0,0012.34,0008.71,0007.95
2022-07-27 10:48:00,,0827.9,5.00,0.00,30.7,29.2,00.0,39.4,32.4,34.1,0000.0,0012.35,0008.72,0007.97
2022-07-27 10:49:00,,0827.9,5.00,0.00,30.7,28.7,00.0,39.4,32.3,34.1,0000.0,0012.47,0008.71,0007.97
2022-07-27 10:50:00,,0827.9,4.99,0.00,30.7,28.0,00.0,39.3,32.2,34.4,0000.0,0012.39,0008.71,0007.99
2022-07-27 10:51:00,,0828.0,5.00,0.00,30.6,27.7,00.0,39.3,32.0,34.8,0000.7,0012.45,0008.77,0008.02
2022-07-27 10:52:00,,0827.9,5.00,0.00,30.5,27.7,00.0,39.2,31.9,34.8,0000.2,0012.89,0008.81,0008.04
2022-07-27 10:53:00,,0828.0,5.00,0.00,30.4,27.8,00.0,39.2,31.9,35.0,0001.8,0013.18,0008.83,0008.05
2022-07-27 10:54:00,,0828.0,4.99,0.00,30.4,27.9,00.0,39.2,31.9,35.1,0001.5,0013.16,0008.85,0008.05
2022-07-27 10:55:00,,0828.0,5.00,0.00,30.6,28.1,00.0,39.2,32.0,34.7,0002.0,0013.43,0008.89,0008.03
2022-07-27 10:56:00,,0828.0,4.99,0.00,30.7,28.2,00.0,39.2,32.1,34.4,0000.4,0014.49,0008.92,0008.01
2022-07-27 10:57:00,,0828.0,5.01,0.00,30.8,28.3,00.0,39.2,32.1,34.3,0000.0,0014.87,0008.89,0007.99
2022-07-27 10:58:00,,0828.0,5.01,0.00,30.8,28.4,00.0,39.2,32.1,34.3,0000.0,0016.03,0008.91,0007.99
2022-07-27 10:59:00,,0828.0,4.99,0.00,30.8,28.5,00.0,39.2,32.1,34.4,0000.0,0016.48,0008.94,0007.98
